When you browse on this site, cookies collect data to enhance your experience and personalize the content and advertising you see.
Visit our Privacy Policy to learn more. By continuing to use the site, you agree to this use of cookies and data.
  • en Suisse
  • Liste des pays
  • À 7 jours
  • Température de l'eau
  • Carte météo
  • Widgets météo
  • user-avatar
    Se connecter

    Météo par heure à Milford

    Ce jour, 2 Juin, Mardi

    Heure Température Précipitation Vent Pression Humidité
    00:00 +14°C° 0 mm 5 m/s 765 mmHg 65%
    01:00 +14°C° 0 mm 5 m/s 764 mmHg 67%
    02:00 +14°C° 0 mm 4 m/s 764 mmHg 69%
    03:00 +14°C° 0 mm 4 m/s 764 mmHg 70%
    04:00 +14°C° 0 mm 4 m/s 764 mmHg 71%
    05:00 +14°C° 0 mm 5 m/s 764 mmHg 71%
    06:00 +15°C° 0 mm 5 m/s 764 mmHg 71%
    07:00 +16°C° 0 mm 5 m/s 764 mmHg 68%
    08:00 +17°C° 0 mm 5 m/s 764 mmHg 69%
    09:00 +18°C° 0 mm 4 m/s 763 mmHg 70%
    10:00 +18°C° 0 mm 3 m/s 763 mmHg 71%
    11:00 +18°C° 0 mm 3 m/s 763 mmHg 73%
    12:00 +18°C° 0 mm 3 m/s 762 mmHg 74%
    13:00 +18°C° 0 mm 3 m/s 762 mmHg 76%
    14:00 +19°C° 0 mm 3 m/s 761 mmHg 71%
    15:00 +20°C° 0 mm 3 m/s 760 mmHg 66%
    16:00 +21°C° 0 mm 3 m/s 759 mmHg 62%
    17:00 +20°C° 0 mm 3 m/s 759 mmHg 65%
    18:00 +20°C° 0 mm 3 m/s 759 mmHg 68%
    19:00 +19°C° 0 mm 3 m/s 759 mmHg 72%
    20:00 +19°C° 0 mm 3 m/s 758 mmHg 72%
    21:00 +18°C° 0 mm 3 m/s 758 mmHg 73%
    22:00 +18°C° 0 mm 3 m/s 757 mmHg 73%
    23:00 +19°C° 0 mm 3 m/s 757 mmHg 78%

    Demain, 3 Juin, Mercredi

    Heure Température Précipitation Vent Pression Humidité
    00:00 +19°C° 0 mm 4 m/s 756 mmHg 82%
    01:00 +20°C° 0 mm 4 m/s 756 mmHg 86%
    02:00 +20°C° 0.2 mm 5 m/s 756 mmHg 85%
    03:00 +20°C° 0.2 mm 5 m/s 755 mmHg 85%
    04:00 +20°C° 0.2 mm 5 m/s 755 mmHg 84%
    05:00 +21°C° 0 mm 5 m/s 755 mmHg 81%
    06:00 +22°C° 0 mm 6 m/s 755 mmHg 79%
    07:00 +23°C° 0 mm 6 m/s 755 mmHg 76%
    08:00 +26°C° 0 mm 6 m/s 755 mmHg 72%
    09:00 +27°C° 0 mm 6 m/s 755 mmHg 68%
    10:00 +29°C° 0 mm 6 m/s 754 mmHg 64%
    11:00 +30°C° 0 mm 7 m/s 754 mmHg 61%
    12:00 +32°C° 0 mm 7 m/s 753 mmHg 59%
    13:00 +33°C° 0 mm 8 m/s 753 mmHg 56%
    14:00 +33°C° 0 mm 7 m/s 752 mmHg 54%
    15:00 +34°C° 0 mm 6 m/s 752 mmHg 52%
    16:00 +34°C° 0 mm 6 m/s 752 mmHg 50%
    17:00 +33°C° 0 mm 5 m/s 752 mmHg 55%
    18:00 +30°C° 0 mm 3 m/s 753 mmHg 61%
    19:00 +28°C° 0 mm 2 m/s 753 mmHg 66%
    20:00 +28°C° 0.1 mm 2 m/s 753 mmHg 68%
    21:00 +27°C° 0.1 mm 2 m/s 754 mmHg 70%
    22:00 +26°C° 0.1 mm 2 m/s 754 mmHg 71%
    23:00 +25°C° 0.5 mm 2 m/s 754 mmHg 76%

    Après-demain, 4 Juin, Jeudi

    Heure Température Précipitation Vent Pression Humidité
    00:00 +24°C° 0.5 mm 2 m/s 754 mmHg 81%
    01:00 +23°C° 0.5 mm 2 m/s 755 mmHg 86%
    02:00 +23°C° 0 mm 2 m/s 755 mmHg 86%
    03:00 +23°C° 0 mm 2 m/s 755 mmHg 87%
    04:00 +22°C° 0 mm 3 m/s 755 mmHg 87%
    05:00 +22°C° 0 mm 3 m/s 756 mmHg 85%
    06:00 +24°C° 0 mm 3 m/s 756 mmHg 83%
    07:00 +25°C° 0 mm 3 m/s 757 mmHg 81%
    08:00 +27°C° 0 mm 3 m/s 757 mmHg 74%
    09:00 +28°C° 0 mm 3 m/s 757 mmHg 68%
    10:00 +30°C° 0 mm 3 m/s 757 mmHg 62%
    11:00 +31°C° 0 mm 3 m/s 757 mmHg 58%
    12:00 +33°C° 0 mm 4 m/s 757 mmHg 54%
    13:00 +34°C° 0 mm 4 m/s 757 mmHg 51%
    14:00 +34°C° 0 mm 4 m/s 756 mmHg 50%
    15:00 +34°C° 0 mm 4 m/s 756 mmHg 49%
    16:00 +34°C° 0 mm 3 m/s 756 mmHg 48%
    17:00 +32°C° 0.3 mm 4 m/s 756 mmHg 57%
    18:00 +29°C° 0.3 mm 4 m/s 757 mmHg 67%
    19:00 +27°C° 0.3 mm 4 m/s 757 mmHg 76%
    20:00 +26°C° 8.3 mm 4 m/s 757 mmHg 80%
    21:00 +25°C° 8.3 mm 4 m/s 758 mmHg 84%
    22:00 +22°C° 8.3 mm 4 m/s 759 mmHg 88%
    23:00 +22°C° 0.7 mm 4 m/s 758 mmHg 90%

    5 Juin, Vendredi

    Heure Température Précipitation Vent Pression Humidité
    00:00 +22°C° 0.7 mm 3 m/s 758 mmHg 91%
    01:00 +22°C° 0.7 mm 3 m/s 758 mmHg 92%
    02:00 +22°C° 0.5 mm 4 m/s 758 mmHg 90%
    03:00 +21°C° 0.5 mm 5 m/s 758 mmHg 87%
    04:00 +21°C° 0.5 mm 6 m/s 758 mmHg 84%
    05:00 +22°C° 0.1 mm 6 m/s 759 mmHg 82%
    06:00 +22°C° 0.1 mm 6 m/s 759 mmHg 80%
    07:00 +22°C° 0.1 mm 6 m/s 759 mmHg 78%
    08:00 +24°C° 0 mm 6 m/s 759 mmHg 74%
    09:00 +26°C° 0 mm 5 m/s 759 mmHg 71%
    10:00 +28°C° 0 mm 5 m/s 759 mmHg 67%
    11:00 +29°C° 0 mm 5 m/s 759 mmHg 66%
    12:00 +29°C° 0 mm 5 m/s 759 mmHg 64%
    13:00 +30°C° 0 mm 5 m/s 758 mmHg 63%
    14:00 +30°C° 0 mm 5 m/s 758 mmHg 62%
    15:00 +30°C° 0 mm 5 m/s 757 mmHg 62%
    16:00 +30°C° 0 mm 5 m/s 757 mmHg 62%
    17:00 +29°C° 0 mm 4 m/s 757 mmHg 68%
    18:00 +27°C° 0 mm 4 m/s 757 mmHg 75%
    19:00 +26°C° 0 mm 4 m/s 757 mmHg 81%
    20:00 +25°C° 0.3 mm 4 m/s 757 mmHg 83%
    21:00 +23°C° 0.3 mm 4 m/s 757 mmHg 84%
    22:00 +23°C° 0.3 mm 4 m/s 757 mmHg 86%
    23:00 +22°C° 1.7 mm 4 m/s 757 mmHg 88%

    6 Juin, Samedi

    Heure Température Précipitation Vent Pression Humidité
    00:00 +22°C° 1.7 mm 5 m/s 756 mmHg 90%
    01:00 +22°C° 1.7 mm 5 m/s 756 mmHg 92%
    02:00 +22°C° 0.7 mm 4 m/s 756 mmHg 93%
    03:00 +22°C° 0.7 mm 4 m/s 756 mmHg 94%
    04:00 +22°C° 0.7 mm 3 m/s 756 mmHg 94%
    05:00 +24°C° 0 mm 3 m/s 755 mmHg 92%
    06:00 +24°C° 0 mm 3 m/s 755 mmHg 90%
    07:00 +25°C° 0 mm 3 m/s 755 mmHg 88%
    08:00 +27°C° 0 mm 3 m/s 755 mmHg 82%
    09:00 +29°C° 0 mm 3 m/s 755 mmHg 75%
    10:00 +30°C° 0 mm 3 m/s 755 mmHg 69%
    11:00 +32°C° 0 mm 4 m/s 755 mmHg 65%
    12:00 +33°C° 0 mm 4 m/s 754 mmHg 62%
    13:00 +33°C° 0 mm 4 m/s 754 mmHg 58%
    14:00 +33°C° 0 mm 4 m/s 753 mmHg 58%
    15:00 +33°C° 0 mm 4 m/s 753 mmHg 58%
    16:00 +33°C° 0 mm 3 m/s 752 mmHg 58%
    17:00 +29°C° 1.2 mm 3 m/s 752 mmHg 68%
    18:00 +26°C° 1.2 mm 3 m/s 753 mmHg 78%
    19:00 +24°C° 1.2 mm 3 m/s 753 mmHg 88%
    20:00 +24°C° 0.3 mm 3 m/s 753 mmHg 89%
    21:00 +23°C° 0.3 mm 4 m/s 753 mmHg 90%
    22:00 +23°C° 0.3 mm 5 m/s 754 mmHg 91%
    23:00 +22°C° 0.1 mm 5 m/s 754 mmHg 90%

    7 Juin, Dimanche

    Heure Température Précipitation Vent Pression Humidité
    00:00 +21°C° 0.1 mm 5 m/s 754 mmHg 89%
    01:00 +20°C° 0.1 mm 5 m/s 754 mmHg 88%
    02:00 +20°C° 0 mm 5 m/s 754 mmHg 87%
    03:00 +19°C° 0 mm 5 m/s 754 mmHg 87%
    04:00 +17°C° 0 mm 5 m/s 754 mmHg 86%
    05:00 +19°C° 0 mm 5 m/s 755 mmHg 84%
    06:00 +19°C° 0 mm 6 m/s 755 mmHg 82%
    07:00 +19°C° 0 mm 6 m/s 756 mmHg 80%
    08:00 +21°C° 0 mm 6 m/s 756 mmHg 74%
    09:00 +22°C° 0 mm 6 m/s 757 mmHg 67%
    10:00 +24°C° 0 mm 6 m/s 757 mmHg 61%
    11:00 +24°C° 0 mm 6 m/s 757 mmHg 59%
    12:00 +26°C° 0 mm 6 m/s 757 mmHg 56%
    13:00 +26°C° 0 mm 6 m/s 757 mmHg 53%
    14:00 +26°C° 0 mm 6 m/s 757 mmHg 53%
    15:00 +26°C° 0 mm 7 m/s 757 mmHg 52%
    16:00 +24°C° 0 mm 7 m/s 757 mmHg 51%
    17:00 +23°C° 0 mm 6 m/s 757 mmHg 55%
    18:00 +22°C° 0 mm 5 m/s 758 mmHg 59%
    19:00 +21°C° 0 mm 4 m/s 758 mmHg 63%
    20:00 +20°C° 0 mm 4 m/s 758 mmHg 62%
    21:00 +19°C° 0 mm 4 m/s 759 mmHg 62%
    22:00 +18°C° 0 mm 4 m/s 760 mmHg 62%
    23:00 +17°C° 0 mm 4 m/s 760 mmHg 64%
    Voir plus